Weather History for KMIW - March, 2011

Change the Weather History Date:

Sunday, March 13, 2011

  Actual Average Record
Temperature  
Mean Temperature 24 °F 35 °F  
Max Temperature 30 °F 44 °F 73 °F (2007)
Min Temperature 17 °F 25 °F 8 °F (2005)
Degree Days  
Heating Degree Days 41 30  
Month to date heating degree days 446 432  
Since 1 July heating degree days 5755 5835  
Cooling Degree Days 0 0  
Month to date cooling degree days 0 0  
Year to date cooling degree days 0 0  
Moisture  
Dew Point 19 °F    
Average Humidity 80    
Maximum Humidity 85    
Minimum Humidity 74    
Precipitation  
Precipitation 0.00 in 0.06 in 0.29 in (2006)
Month to date precipitation 0.28 0.66  
Year to date precipitation 0.57  
Sea Level Pressure  
Sea Level Pressure 30.41 in    
Wind  
Wind Speed 9 mph (North)    
Max Wind Speed 17 mph    
Max Gust Speed 22 mph    
Visibility 10 miles    
Events      
T = Trace of Precipitation, MM = Missing Value Source: NWS Daily Summary

Daily Weather History Graph

Daily Weather History Graph

Search for Another Location

Airport or City:

Trip Planner

Search our weather history database for the weather conditions in past years. The results will help you decide how hot, cold, wet, or windy it might be!

Date:

Astronomy

Mar. 13, 2011 Rise Set
Actual Time 7:27 AM CDT 7:15 PM CDT
Civil Twilight 6:59 AM CDT 7:43 PM CDT
Nautical Twilight 6:27 AM CDT 8:16 PM CDT
Astronomical Twilight 5:54 AM CDT 8:48 PM CDT
Moon 12:24 PM CDT (3/13) 3:06 AM CDT (3/13)
Length of Visible Light 12h 43m
Length of Day
11h 48m
First Quarter, 58% of the Moon is Illuminated
Mar 13
First Quarter
Mar 19
Full
Mar 26
Last Quarter
Apr 3
New
Apr 11
First Quarter

Hourly Weather History & Observations

Time (CDT) Temp. Windchill Dew Point Humidity Pressure Visibility Wind Dir Wind Speed Gust Speed Precip Events Conditions
12:53 AM 21.0 °F 8.1 °F 17.1 °F 85% 30.32 in 10.0 mi NNW 13.8 mph - N/A   Overcast
1:53 AM 21.0 °F 8.1 °F 17.1 °F 85% 30.34 in 10.0 mi NNW 13.8 mph - N/A   Overcast
3:53 AM 19.9 °F 7.9 °F 15.1 °F 81% 30.34 in 10.0 mi NNW 11.5 mph - N/A   Overcast
4:53 AM 19.0 °F 6.1 °F 14.0 °F 81% 30.35 in 10.0 mi NNW 12.7 mph - N/A   Overcast
5:53 AM 19.0 °F 6.1 °F 14.0 °F 81% 30.36 in 10.0 mi NNW 12.7 mph - N/A   Overcast
6:53 AM 18.0 °F 6.9 °F 14.0 °F 84% 30.38 in 10.0 mi North 9.2 mph - N/A   Overcast
7:53 AM 18.0 °F 4.8 °F 12.9 °F 81% 30.39 in 10.0 mi North 12.7 mph - N/A   Overcast
8:53 AM 17.1 °F 4.3 °F 12.9 °F 84% 30.40 in 10.0 mi North 11.5 mph - N/A   Overcast
9:01 AM 17.6 °F 5.0 °F 14.0 °F 86% 30.35 in 10.0 mi North 11.5 mph - N/A   Overcast
9:53 AM 19.0 °F 7.5 °F 15.1 °F 85% 30.42 in 10.0 mi NNW 10.4 mph - N/A   Overcast
10:53 AM 21.9 °F 11.0 °F 16.0 °F 78% 30.42 in 10.0 mi North 10.4 mph - N/A   Overcast
11:45 AM 21.2 °F 10.9 °F 17.6 °F 86% 30.41 in 10.0 mi North 9.2 mph - N/A   Overcast
11:53 AM 21.9 °F 12.5 °F 17.1 °F 82% 30.45 in 10.0 mi North 8.1 mph - N/A   Overcast
12:53 PM 24.1 °F 13.1 °F 18.0 °F 77% 30.46 in 10.0 mi North 11.5 mph - N/A   Overcast
1:53 PM 26.1 °F 18.4 °F 19.9 °F 78% 30.46 in 10.0 mi NNE 6.9 mph - N/A   Overcast
2:53 PM 27.0 °F 20.5 °F 21.0 °F 78% 30.45 in 10.0 mi NNE 5.8 mph - N/A   Overcast
3:53 PM 28.0 °F 21.7 °F 21.0 °F 75% 30.46 in 10.0 mi NNE 5.8 mph - N/A   Overcast
4:53 PM 28.9 °F 22.8 °F 23.0 °F 78% 30.44 in 10.0 mi NNE 5.8 mph - N/A   Mostly Cloudy
5:12 PM 28.4 °F 21.2 °F 23.0 °F 80% 30.40 in 10.0 mi North 6.9 mph - N/A   Mostly Cloudy
5:53 PM 28.9 °F 21.1 °F 23.0 °F 78% 30.43 in 10.0 mi North 8.1 mph - N/A   Scattered Clouds
6:53 PM 28.9 °F 18.6 °F 23.0 °F 78% 30.42 in 10.0 mi NNE 12.7 mph - N/A   Clear
7:53 PM 28.9 °F 19.2 °F 23.0 °F 78% 30.41 in 10.0 mi NNE 11.5 mph - N/A   Clear
8:53 PM 28.0 °F 18.6 °F 24.1 °F 85% 30.43 in 10.0 mi NE 10.4 mph - N/A   Partly Cloudy
9:13 PM 28.4 °F 20.4 °F 23.0 °F 80% 30.41 in 10.0 mi ENE 8.1 mph - N/A   Mostly Cloudy
9:53 PM 28.0 °F 22.8 °F 23.0 °F 81% 30.46 in 10.0 mi ENE 4.6 mph - N/A   Mostly Cloudy
10:11 PM 26.6 °F - 23.0 °F 86% 30.43 in 10.0 mi Calm Calm - N/A   Scattered Clouds
10:53 PM 26.1 °F 21.9 °F 23.0 °F 88% 30.48 in 10.0 mi NNE 3.5 mph - N/A   Clear
11:53 PM 26.1 °F 21.9 °F 23.0 °F 88% 30.49 in 9.0 mi NNW 3.5 mph - N/A   Clear
12:53 AM 26.1 °F 19.4 °F 24.1 °F 92% 30.45 in 8.0 mi NNE 5.8 mph - N/A   Clear